Vertical_Velocity
-3 4 3 5 3 0 -2 -1 -1 -2 -1 -0 -1 0 -1 -1 -2 -3 0 -2 -2 0 2 3 -1 -0 1 -0 1 -1 -0 -1 -1 -1 -1 -1 -1 -2 -1 0 -0 -1 -1
-0 2 3 0 2 1 3 -1 -1 -2 -3 -1 -1 -0 0 -1 -2 -3 0 -3 -3 4 2 -2 -3 -0 1 -0 -1 -2 -1 0 -0 -0 -0 -1 -2 -2 -2 -0 5 0 -1
0 1 2 3 5 2 2 0 -0 0 -2 -3 -0 1 -1 1 -0 -1 -3 1 1 -0 -4 -1 0 -2 1 0 1 -0 -1 -0 -0 -1 1 1 -1 -0 -1 -0 -0 -1 0
-6 -6 0 2 4 4 3 3 0 0 1 -1 -4 -0 0 2 1 -2 -3 2 -0 -2 -2 -0 1 -1 1 0 -1 1 1 -0 1 1 0 1 0 0 -1 -2 -3 -2 -0
-3 -4 -2 -1 1 1 2 0 0 1 0 1 -1 0 -1 -0 0 0 0 -2 1 -3 -2 -1 1 -1 -1 0 -0 -5 -2 -1 -2 -0 1 -0 0 0 2 1 1 0 -2
-3 -3 -1 -1 -2 -1 -0 2 2 2 1 0 0 -1 0 1 1 1 -0 0 -1 -1 -2 -2 -0 -1 -0 -0 -1 -0 -2 -2 -1 -1 -1 -0 1 -1 -1 -0 -1 -2 -1
-1 -1 0 0 -3 1 -1 -1 1 0 2 1 0 0 1 1 -1 -0 0 2 -1 -3 -1 -1 -0 -0 -1 -0 0 -1 0 -1 -0 0 -0 -1 -1 -0 -1 -0 1 1 -1
8 -3 -5 -2 -1 0 1 1 -2 -0 0 0 -1 1 3 3 1 -3 -1 1 2 -0 -1 -1 -2 0 0 -1 1 -0 0 -1 -3 -0 -1 -0 -1 -1 0 -0 -2 -3 -1
-4 6 7 2 -4 -0 -3 -1 2 -1 1 4 3 -0 -1 3 1 -0 -1 1 2 3 -0 -1 0 -1 -1 0 -1 -1 -3 0 0 -2 -1 -1 -0 -0 -2 -2 -1 -1 -2
6 2 2 4 5 2 -6 -6 -1 2 -2 2 5 3 -1 5 2 -0 -4 -1 -1 -0 1 0 -0 1 1 -1 -1 -0 -1 -2 -2 -1 0 -2 -3 -1 0 -1 -0 -1 0
10 6 2 1 -2 5 2 0 -2 -5 1 3 4 5 1 1 -1 3 -3 -2 -2 -2 -2 0 0 -1 0 -0 -1 -2 -1 -2 0 -1 0 -1 0 -2 -0 -1 -0 -1 -1
3 5 10 -2 -8 -1 3 -1 2 1 -3 -0 2 1 5 2 -2 -3 1 -2 -0 -1 -0 -2 0 1 0 1 -1 -0 -1 -2 -2 -1 -3 -2 -2 0 -3 -2 -2 -1 -1
10 -4 5 0 8 -9 -3 -0 3 1 0 -2 1 5 0 3 3 -4 -3 0 -1 -3 -2 -0 -2 -2 -0 -1 -1 -0 1 1 -1 2 0 -1 -1 0 -1 -0 -1 -2 -2
12 9 -0 3 4 1 -3 -2 -3 1 3 3 -2 2 1 -0 0 -0 -3 -0 -1 1 -2 -0 1 1 -1 1 0 -1 -0 -1 -1 -3 -1 0 0 -0 -1 1 1 0 -0
-4 4 13 2 6 7 1 -3 -2 -4 -3 -1 4 3 -2 3 -0 5 1 -4 -3 -1 1 0 -0 -1 -1 0 2 3 -2 -0 -2 -0 -5 -1 -3 2 -1 -0 -0 -2 -2
-0 -2 3 6 14 8 4 6 0 -5 -11 -1 10 2 -2 3 7 0 -2 2 8 1 0 2 2 2 1 -0 -1 -2 -0 -0 1 1 3 -1 -5 -3 1 -2 -0 2 1
-3 2 -1 8 5 6 11 2 -1 -3 0 -12 -3 -1 8 8 -0 -3 -7 -3 0 -0 2 1 -0 -1 -1 0 -2 1 -1 0 2 -3 0 4 -6 4 2 -2 0 4 1
3 1 2 -2 -3 1 -4 2 6 9 3 -3 -10 -8 28 2 7 10 2 -9 10 2 0 1 0 1 -1 1 -0 0 -1 -4 1 -3 -2 5 -5 0 -1 -2 -0 -2 0
-4 0 -1 -5 -3 -1 4 -3 -1 3 5 3 7 -14 -0 5 0 -21 13 -5 -0 4 -0 2 1 0 1 -0 0 1 0 2 2 0 -2 3 -8 1 2 0 -2 -1 0
-2 -1 2 -4 -4 4 3 1 0 -4 1 -1 -2 -9 2 -6 -2 -9 8 6 2 4 3 0 1 2 1 1 1 2 2 -2 -2 -5 -0 0 -3 -3 3 -2 1 0 1
3 2 2 2 -8 -2 -1 1 -1 -12 -9 6 -5 20 -17 -10 0 0 -6 6 3 0 -1 5 6 0 -0 3 5 2 -1 -1 -8 1 3 -8 -7 -7 -3 2 -0 -1 -0
-1 4 0 -5 0 -1 2 -4 -5 -0 5 7 6 6 -12 -7 -2 2 1 8 3 1 2 0 -0 -1 1 4 1 4 1 1 -2 0 -0 -1 2 4 5 -1 3 1 -0
5 -2 5 4 -2 0 1 2 12 13 14 16 4 7 -4 -1 -1 5 3 3 4 4 -2 -0 -2 -3 0 -0 1 -2 2 -5 -2 3 2 3 6 5 6 1 3 2 -2
-6 14 6 3 7 -22 16 5 1 -3 9 5 0 4 2 7 -3 2 6 3 2 8 8 1 2 9 7 -2 -2 -10 -6 3 -2 -8 -3 6 10 7 -0 8 -1 -3 0
-1 2 -16 5 -19 -6 -5 10 8 -9 -2 -5 10 3 5 10 25 27 19 15 12 7 9 15 12 -6 9 -4 2 1 5 8 2 -1 -2 -6 3 2 -4 2 1 -0 1
0 -2 3 -16 -3 3 6 10 -1 -5 7 -4 -4 -3 2 -6 -4 -2 3 8 3 -2 3 -1 -10 -6 -3 5 1 -0 2 2 -4 1 1 1 5 -3 -1 1 2 0 2
Height
1488 1490 1493 1497 1500 1503 1505 1509 1512 1515 1519 1521 1523 1524 1526 1528 1530 1532 1533 1535 1536 1538 1540 1540 1540 1541 1541 1541 1542 1543 1544 1544 1544 1544 1545 1545 1545 1546 1546 1546 1546 1546 1546
1487 1491 1494 1497 1500 1503 1505 1508 1511 1514 1518 1521 1523 1525 1526 1528 1530 1532 1534 1536 1538 1540 1541 1541 1542 1543 1543 1544 1544 1545 1546 1546 1546 1546 1546 1546 1547 1547 1548 1548 1548 1548 1548
1489 1492 1495 1498 1501 1503 1506 1508 1511 1513 1516 1520 1523 1525 1527 1529 1530 1532 1535 1537 1538 1540 1542 1543 1544 1545 1546 1546 1546 1547 1547 1548 1548 1549 1549 1548 1548 1549 1549 1549 1549 1549 1550
1490 1493 1496 1498 1501 1504 1507 1509 1511 1514 1516 1518 1522 1525 1527 1529 1531 1533 1535 1537 1539 1541 1543 1545 1546 1547 1548 1548 1548 1549 1549 1550 1550 1550 1551 1551 1550 1550 1550 1550 1551 1551 1551
1489 1493 1496 1500 1502 1505 1507 1509 1511 1514 1516 1519 1522 1525 1527 1530 1532 1533 1535 1537 1540 1541 1544 1546 1547 1548 1549 1550 1550 1550 1551 1552 1552 1553 1553 1553 1553 1552 1552 1552 1552 1552 1552
1487 1491 1494 1498 1502 1504 1507 1509 1511 1513 1516 1519 1521 1524 1527 1530 1532 1534 1535 1537 1540 1542 1544 1547 1548 1549 1550 1551 1551 1551 1552 1553 1554 1554 1555 1555 1554 1554 1554 1554 1553 1553 1553
1485 1489 1493 1497 1501 1503 1506 1509 1511 1514 1516 1519 1521 1524 1527 1530 1532 1534 1536 1538 1539 1542 1545 1547 1549 1550 1552 1552 1553 1553 1554 1555 1555 1555 1556 1556 1556 1556 1556 1555 1555 1554 1554
1486 1487 1490 1496 1500 1503 1506 1508 1510 1512 1515 1518 1520 1524 1527 1529 1531 1534 1536 1538 1539 1542 1545 1548 1550 1551 1553 1553 1554 1554 1555 1556 1556 1557 1557 1557 1557 1557 1557 1556 1556 1556 1556
1489 1489 1489 1493 1498 1501 1504 1507 1509 1511 1514 1516 1518 1522 1526 1529 1531 1533 1536 1539 1541 1543 1545 1548 1550 1552 1553 1554 1555 1555 1555 1556 1557 1557 1558 1558 1558 1557 1557 1557 1557 1557 1556
1487 1489 1489 1492 1495 1498 1501 1505 1507 1509 1512 1516 1518 1519 1524 1528 1531 1533 1535 1538 1541 1543 1546 1548 1550 1552 1553 1555 1555 1556 1556 1556 1557 1558 1558 1558 1558 1559 1558 1558 1557 1557 1557
1489 1489 1488 1492 1494 1497 1500 1502 1505 1508 1511 1514 1518 1520 1522 1527 1531 1533 1533 1537 1541 1543 1545 1548 1550 1552 1554 1555 1555 1556 1556 1557 1557 1557 1558 1558 1558 1558 1558 1558 1558 1557 1557
1487 1489 1489 1490 1492 1496 1497 1500 1503 1505 1509 1513 1516 1519 1521 1524 1527 1532 1533 1536 1540 1542 1545 1547 1550 1552 1553 1554 1555 1555 1556 1556 1557 1557 1557 1558 1558 1557 1557 1557 1557 1557 1556
1484 1486 1489 1488 1489 1492 1496 1498 1501 1504 1507 1511 1515 1517 1520 1523 1525 1529 1533 1535 1537 1540 1543 1546 1548 1550 1552 1553 1554 1555 1555 1555 1556 1556 1556 1557 1557 1557 1556 1556 1556 1556 1555
1481 1483 1485 1487 1487 1489 1494 1496 1499 1502 1506 1509 1513 1516 1519 1520 1524 1525 1529 1532 1535 1539 1542 1545 1547 1549 1550 1552 1553 1553 1554 1554 1554 1555 1556 1556 1557 1556 1555 1555 1554 1554 1554
1476 1479 1481 1483 1486 1488 1490 1494 1497 1500 1503 1508 1510 1514 1517 1518 1521 1524 1527 1530 1533 1538 1541 1543 1545 1547 1549 1550 1552 1552 1552 1553 1553 1554 1554 1555 1556 1556 1554 1554 1553 1552 1552
1471 1475 1478 1480 1483 1483 1487 1492 1494 1498 1502 1505 1508 1511 1514 1516 1517 1522 1526 1529 1532 1536 1540 1542 1544 1545 1547 1548 1550 1551 1551 1552 1552 1554 1553 1553 1554 1555 1554 1553 1552 1552 1551
1467 1470 1473 1478 1480 1482 1485 1488 1490 1493 1495 1501 1505 1508 1510 1512 1515 1520 1523 1527 1531 1535 1539 1541 1542 1544 1545 1546 1547 1549 1549 1550 1550 1551 1553 1551 1553 1554 1553 1553 1552 1551 1549
1464 1466 1469 1473 1477 1480 1482 1486 1488 1491 1492 1494 1498 1506 1505 1511 1512 1516 1519 1524 1529 1533 1536 1538 1540 1541 1542 1543 1545 1546 1547 1548 1549 1549 1550 1550 1550 1551 1551 1551 1550 1550 1547
1458 1461 1464 1467 1470 1474 1476 1479 1482 1483 1486 1489 1491 1497 1503 1507 1511 1512 1514 1518 1526 1530 1533 1536 1538 1538 1539 1542 1543 1544 1545 1545 1546 1547 1547 1547 1548 1549 1548 1548 1547 1546 1544
1452 1455 1458 1460 1464 1465 1468 1471 1474 1477 1481 1483 1485 1487 1495 1502 1509 1512 1517 1518 1524 1527 1531 1533 1534 1536 1538 1540 1541 1542 1542 1542 1544 1545 1545 1543 1544 1545 1546 1546 1545 1544 1543
1445 1448 1451 1454 1457 1458 1460 1463 1467 1469 1469 1474 1477 1480 1487 1498 1506 1511 1512 1518 1521 1523 1526 1529 1532 1533 1535 1538 1539 1539 1539 1539 1540 1540 1538 1538 1539 1539 1541 1542 1540 1541 1541
1438 1442 1444 1446 1448 1452 1453 1456 1460 1462 1464 1466 1472 1475 1483 1491 1500 1506 1510 1512 1515 1518 1522 1525 1527 1529 1533 1536 1536 1536 1537 1537 1535 1536 1535 1535 1535 1535 1534 1536 1538 1538 1537
1431 1437 1438 1440 1442 1444 1449 1452 1458 1460 1462 1463 1468 1474 1480 1491 1497 1501 1505 1508 1510 1514 1517 1520 1522 1526 1528 1531 1533 1533 1533 1532 1532 1530 1531 1531 1531 1529 1532 1532 1533 1533 1533
1424 1429 1430 1433 1436 1440 1444 1447 1453 1454 1454 1458 1466 1470 1479 1488 1492 1499 1502 1504 1507 1511 1514 1517 1519 1521 1525 1527 1528 1527 1528 1529 1527 1525 1526 1527 1527 1525 1527 1528 1528 1528 1528
1416 1420 1423 1426 1432 1436 1440 1444 1449 1453 1456 1459 1464 1469 1477 1484 1489 1496 1499 1501 1504 1507 1512 1514 1515 1518 1521 1521 1520 1521 1521 1521 1521 1517 1520 1522 1522 1521 1522 1524 1524 1524 1524
1413 1417 1418 1424 1424 1428 1437 1440 1446 1450 1453 1458 1464 1468 1473 1479 1486 1491 1496 1498 1502 1504 1506 1507 1512 1514 1515 1516 1515 1516 1516 1515 1517 1510 1516 1515 1516 1517 1518 1519 1519 1521 1519